Tracking 20621 objects as of 31-Mar-2020
HD Live streaming from Space Station
objects crossing your sky now

AISTECHSAT-2

Track AISTECHSAT-2 now!
10-day predictions


NORAD ID: 43768
Int'l Code: 2018-099L
Perigee: 581.5 km
Apogee: 599.8 km
Inclination: 97.7 °
Period: 96.3 minutes
Semi major axis: 6961 km
RCS: Unknown
Launch date: December 3, 2018
Source: Spain (SPN)
Launch site: AIR FORCE WESTERN TEST RANGE (AFWTR)
aabbcc
Your satellite tracking list
Your tracking list is empty




NASA's NSSDC Master Catalog

Two Line Element Set (TLE):
1 43768U 18099L   20090.74542853  .00000535  00000-0  54594-4 0  9998
2 43768  97.7100 163.1848 0013077  91.6222 268.6496 14.94633475 71864
Source of the keplerian elements: AFSPC